Find ICOR SV

NORAD ID: 68127 Int'l Des: 2026-046 Owner: LMSSD Country: US decayed
LEOCIRCULARRETROGRADE

Re-entered — Apr 21, 2026

3D地球を読み込み中...

About ICOR SV

ICOR SV (NORAD 68127) is a satellite launched Mar 12, 2026 by LMSSD of US. It re-entered the atmosphere on Apr 21, 2026. with a mass of 1100.00 kg.

高度履歴

Loading altitude history...

軌道要素

1 68127U 26046A 26109.59295808 .02873854 13124-4 51214-3 0 9994
2 68127 123.0635 36.1737 0038563 269.9104 89.7570 16.29449949 6143
Epoch: Apr 19, 2026 • Age: 1308 hours

現在のステータス

Position data unavailable
打ち上げ日 Mar 12, 2026
運用期間 0.2 years
落下予定日 Apr 21, 2026
タイプ other

技術仕様

分類 Payload
質量 1100.00 kg
乾燥質量 1100.00 kg
総質量 1100.00 kg
長さ 0.30 m
直径 0.10 m
スパン 0.30 m
形状 Box
製造者 LMSSD
バスタイプ LM-400
フェーズステータス Reentered
所有者/国 LMSSD/US

Most Searched